Time,TemperatureF,DewpointF,PressureIn,WindDirection,WindDirectionDegrees,WindSpeedMPH,WindSpeedGustMPH,Humidity,HourlyPrecipIn,Conditions,Clouds,dailyrainin,SoftwareType,DateUTC
2013-02-08 00:00:00,34.8,27.7,30.05,NW,307,3.0,6.0,75,0.00,,,0.00,Wunderground v.1.13,2013-02-08 05:00:00,
2013-02-08 00:01:00,34.8,28.0,30.04,NNW,346,3.0,6.0,76,0.00,,,0.00,Wunderground v.1.13,2013-02-08 05:01:00,
2013-02-08 00:02:00,34.7,27.9,30.04,North,355,3.0,6.0,76,0.00,,,0.00,Wunderground v.1.13,2013-02-08 05:02:00,
2013-02-08 00:06:00,34.6,27.8,30.04,North,350,3.0,5.0,76,0.00,,,0.00,Wunderground v.1.13,2013-02-08 05:06:00,
2013-02-08 00:12:00,34.5,27.7,30.04,NNW,346,2.0,5.0,76,0.00,,,0.00,Wunderground v.1.13,2013-02-08 05:12:00,
2013-02-08 00:18:00,34.1,27.6,30.04,NNW,346,1.0,5.0,77,0.00,,,0.00,Wunderground v.1.13,2013-02-08 05:18:00,
2013-02-08 00:24:00,33.9,27.8,30.04,NNE,13,2.0,5.0,78,0.00,,,0.00,Wunderground v.1.13,2013-02-08 05:24:00,
2013-02-08 00:29:00,33.8,27.7,30.04,NNE,13,2.0,5.0,78,0.00,,,0.00,Wunderground v.1.13,2013-02-08 05:29:00,
2013-02-08 00:35:00,33.5,27.7,30.03,North,360,1.0,5.0,79,0.00,,,0.00,Wunderground v.1.13,2013-02-08 05:35:00,
2013-02-08 00:40:00,33.7,27.9,30.03,North,355,2.0,5.0,79,0.00,,,0.00,Wunderground v.1.13,2013-02-08 05:40:00,
2013-02-08 00:46:00,34.0,27.9,30.02,ENE,63,2.0,13.0,78,0.00,,,0.00,Wunderground v.1.13,2013-02-08 05:46:00,
2013-02-08 00:51:00,34.3,28.2,30.02,NNW,344,3.0,8.0,78,0.00,,,0.00,Wunderground v.1.13,2013-02-08 05:51:00,
2013-02-08 00:57:00,34.4,28.2,30.01,NNE,15,3.0,6.0,78,0.00,,,0.00,Wunderground v.1.13,2013-02-08 05:57:00,
2013-02-08 01:03:00,34.4,28.2,30.01,WSW,254,2.0,5.0,78,0.00,,,0.00,Wunderground v.1.13,2013-02-08 06:03:00,
2013-02-08 01:08:00,34.6,28.4,30.01,West,279,2.0,5.0,78,0.00,,,0.00,Wunderground v.1.13,2013-02-08 06:08:00,
2013-02-08 01:14:00,34.6,28.4,30.01,NNW,331,3.0,5.0,78,0.00,,,0.00,Wunderground v.1.13,2013-02-08 06:14:00,
2013-02-08 01:19:00,34.6,28.4,30.01,West,268,3.0,8.0,78,0.00,,,0.00,Wunderground v.1.13,2013-02-08 06:19:00,
2013-02-08 01:25:00,34.5,28.3,30.00,WNW,301,2.0,2.0,78,0.00,,,0.00,Wunderground v.1.13,2013-02-08 06:25:00,
2013-02-08 01:30:00,34.4,28.6,30.00,NE,45,1.0,3.0,79,0.00,,,0.00,Wunderground v.1.13,2013-02-08 06:30:00,
2013-02-08 01:36:00,34.5,28.7,30.00,West,267,2.0,6.0,79,0.00,,,0.00,Wunderground v.1.13,2013-02-08 06:36:00,
2013-02-08 01:42:00,34.6,28.8,30.00,ESE,109,2.0,4.0,79,0.00,,,0.00,Wunderground v.1.13,2013-02-08 06:42:00,
2013-02-08 01:48:00,34.7,28.9,30.00,SW,222,1.0,2.0,79,0.00,,,0.00,Wunderground v.1.13,2013-02-08 06:48:00,
2013-02-08 01:53:00,34.7,28.9,30.00,WNW,296,2.0,4.0,79,0.00,,,0.00,Wunderground v.1.13,2013-02-08 06:53:00,
2013-02-08 01:58:00,34.8,29.0,29.99,NE,50,2.0,6.0,79,0.00,,,0.00,Wunderground v.1.13,2013-02-08 06:58:00,
2013-02-08 02:04:00,34.8,29.0,29.99,NNE,15,2.0,6.0,79,0.00,,,0.00,Wunderground v.1.13,2013-02-08 07:04:00,
2013-02-08 02:10:00,34.8,29.0,29.98,NW,325,2.0,2.0,79,0.00,,,0.00,Wunderground v.1.13,2013-02-08 07:10:00,
2013-02-08 02:15:00,34.7,29.2,29.98,SW,232,2.0,6.0,80,0.00,,,0.00,Wunderground v.1.13,2013-02-08 07:15:00,
2013-02-08 02:21:00,34.8,29.3,29.98,South,179,3.0,8.0,80,0.00,,,0.00,Wunderground v.1.13,2013-02-08 07:21:00,
2013-02-08 02:27:00,34.9,29.4,29.97,WNW,288,3.0,6.0,80,0.00,,,0.00,Wunderground v.1.13,2013-02-08 07:27:00,
2013-02-08 02:33:00,34.9,29.4,29.97,West,261,4.0,11.0,80,0.00,,,0.00,Wunderground v.1.13,2013-02-08 07:33:00,
2013-02-08 02:38:00,34.9,29.4,29.96,South,174,4.0,6.0,80,0.00,,,0.00,Wunderground v.1.13,2013-02-08 07:38:00,
2013-02-08 02:43:00,34.9,29.4,29.96,West,275,3.0,6.0,80,0.00,,,0.00,Wunderground v.1.13,2013-02-08 07:43:00,
2013-02-08 02:49:00,34.9,29.0,29.96,West,263,3.0,10.0,79,0.00,,,0.00,Wunderground v.1.13,2013-02-08 07:49:00,
2013-02-08 02:55:00,34.9,29.4,29.96,West,261,2.0,2.0,80,0.00,,,0.00,Wunderground v.1.13,2013-02-08 07:55:00,
2013-02-08 03:01:00,34.8,29.3,29.96,WNW,292,2.0,4.0,80,0.00,,,0.00,Wunderground v.1.13,2013-02-08 08:01:00,
2013-02-08 03:07:00,34.8,29.3,29.96,NNW,339,3.0,9.0,80,0.00,,,0.00,Wunderground v.1.13,2013-02-08 08:07:00,
2013-02-08 03:13:00,34.8,29.3,29.95,ENE,72,3.0,9.0,80,0.00,,,0.00,Wunderground v.1.13,2013-02-08 08:13:00,
2013-02-08 03:19:00,34.8,29.3,29.95,South,185,3.0,10.0,80,0.00,,,0.00,Wunderground v.1.13,2013-02-08 08:19:00,
2013-02-08 03:24:00,35.0,29.5,29.95,SSW,197,3.0,9.0,80,0.00,,,0.00,Wunderground v.1.13,2013-02-08 08:24:00,
2013-02-08 03:29:00,34.9,29.4,29.95,NNW,341,2.0,9.0,80,0.00,,,0.00,Wunderground v.1.13,2013-02-08 08:29:00,
2013-02-08 03:35:00,34.8,29.3,29.95,NNW,329,3.0,9.0,80,0.00,,,0.00,Wunderground v.1.13,2013-02-08 08:35:00,
2013-02-08 03:40:00,34.8,29.3,29.94,North,9,4.0,4.0,80,0.00,,,0.00,Wunderground v.1.13,2013-02-08 08:40:00,
2013-02-08 03:46:00,34.8,29.3,29.93,NNW,339,3.0,9.0,80,0.00,,,0.00,Wunderground v.1.13,2013-02-08 08:46:00,
2013-02-08 03:52:00,34.7,29.5,29.93,NNW,328,1.0,9.0,81,0.00,,,0.00,Wunderground v.1.13,2013-02-08 08:52:00,
2013-02-08 03:58:00,34.7,29.5,29.93,NNE,29,3.0,9.0,81,0.00,,,0.00,Wunderground v.1.13,2013-02-08 08:58:00,
2013-02-08 04:03:00,34.8,29.6,29.93,ENE,72,5.0,12.0,81,0.00,,,0.00,Wunderground v.1.13,2013-02-08 09:03:00,
2013-02-08 04:09:00,34.9,29.7,29.93,East,86,5.0,11.0,81,0.00,,,0.00,Wunderground v.1.13,2013-02-08 09:09:00,
2013-02-08 04:15:00,35.0,30.1,29.93,East,94,3.0,11.0,82,0.00,,,0.00,Wunderground v.1.13,2013-02-08 09:15:00,
2013-02-08 04:21:00,35.0,30.1,29.93,SW,221,3.0,11.0,82,0.00,,,0.00,Wunderground v.1.13,2013-02-08 09:21:00,
2013-02-08 04:27:00,35.1,30.2,29.93,NNW,336,4.0,14.0,82,0.00,,,0.00,Wunderground v.1.13,2013-02-08 09:27:00,
2013-02-08 04:33:00,35.0,30.1,29.93,NNW,336,4.0,11.0,82,0.00,,,0.00,Wunderground v.1.13,2013-02-08 09:33:00,
2013-02-08 04:39:00,34.9,30.0,29.92,NNW,333,1.0,11.0,82,0.00,,,0.00,Wunderground v.1.13,2013-02-08 09:39:00,
2013-02-08 04:45:00,34.7,29.8,29.92,WNW,295,1.0,11.0,82,0.00,,,0.00,Wunderground v.1.13,2013-02-08 09:45:00,
2013-02-08 04:51:00,34.6,30.0,29.92,NW,305,2.0,11.0,83,0.00,,,0.00,Wunderground v.1.13,2013-02-08 09:51:00,
2013-02-08 04:56:00,34.6,30.3,29.92,West,265,2.0,11.0,84,0.00,,,0.00,Wunderground v.1.13,2013-02-08 09:56:00,
2013-02-08 05:02:00,34.6,30.3,29.92,West,269,2.0,11.0,84,0.00,,,0.00,Wunderground v.1.13,2013-02-08 10:02:00,
2013-02-08 05:08:00,34.4,30.1,29.91,West,275,0.0,4.0,84,0.00,,,0.00,Wunderground v.1.13,2013-02-08 10:08:00,
2013-02-08 05:14:00,34.4,30.1,29.91,NNW,338,1.0,2.0,84,0.00,,,0.00,Wunderground v.1.13,2013-02-08 10:14:00,
2013-02-08 05:20:00,34.3,30.3,29.91,NNW,341,2.0,2.0,85,0.00,,,0.00,Wunderground v.1.13,2013-02-08 10:20:00,
2013-02-08 05:26:00,34.3,30.3,29.91,NNW,338,1.0,2.0,85,0.00,,,0.00,Wunderground v.1.13,2013-02-08 10:26:00,
2013-02-08 05:32:00,34.3,30.3,29.91,NNW,339,0.0,3.0,85,0.00,,,0.00,Wunderground v.1.13,2013-02-08 10:32:00,
2013-02-08 05:38:00,34.3,30.3,29.90,NNW,348,1.0,2.0,85,0.00,,,0.00,Wunderground v.1.13,2013-02-08 10:38:00,
2013-02-08 05:42:00,34.4,30.6,29.90,WNW,303,3.0,8.0,86,0.00,,,0.00,Wunderground v.1.13,2013-02-08 10:42:00,
2013-02-08 05:48:00,34.5,30.5,29.90,West,263,3.0,5.0,85,0.00,,,0.00,Wunderground v.1.13,2013-02-08 10:48:00,
2013-02-08 05:54:00,34.6,30.8,29.89,NW,304,3.0,4.0,86,0.00,,,0.00,Wunderground v.1.13,2013-02-08 10:54:00,
2013-02-08 06:00:00,34.7,30.7,29.90,WNW,286,2.0,2.0,85,0.00,,,0.00,Wunderground v.1.13,2013-02-08 11:00:00,
2013-02-08 06:05:00,34.7,30.7,29.90,WSW,249,2.0,6.0,85,0.00,,,0.00,Wunderground v.1.13,2013-02-08 11:05:00,
2013-02-08 06:10:00,34.7,30.7,29.90,West,263,3.0,3.0,85,0.00,,,0.00,Wunderground v.1.13,2013-02-08 11:10:00,
2013-02-08 06:16:00,34.7,30.7,29.89,NNW,333,3.0,6.0,85,0.00,,,0.00,Wunderground v.1.13,2013-02-08 11:16:00,
2013-02-08 06:22:00,34.7,30.7,29.89,NNW,327,3.0,7.0,85,0.00,,,0.00,Wunderground v.1.13,2013-02-08 11:22:00,
2013-02-08 06:28:00,34.7,30.7,29.89,NNW,327,1.0,6.0,85,0.00,,,0.00,Wunderground v.1.13,2013-02-08 11:28:00,
2013-02-08 06:33:00,34.5,30.5,29.89,NNW,346,1.0,8.0,85,0.00,,,0.00,Wunderground v.1.13,2013-02-08 11:33:00,
2013-02-08 06:39:00,34.4,30.4,29.88,NNW,345,1.0,6.0,85,0.00,,,0.00,Wunderground v.1.13,2013-02-08 11:39:00,
2013-02-08 06:45:00,34.4,30.4,29.88,WSW,238,1.0,6.0,85,0.00,,,0.00,Wunderground v.1.13,2013-02-08 11:45:00,
2013-02-08 06:51:00,34.5,30.5,29.87,NE,44,2.0,5.0,85,0.00,,,0.00,Wunderground v.1.13,2013-02-08 11:51:00,
2013-02-08 06:57:00,34.6,30.6,29.87,WNW,300,2.0,6.0,85,0.00,,,0.00,Wunderground v.1.13,2013-02-08 11:57:00,
2013-02-08 07:03:00,34.9,30.8,29.88,NW,319,3.0,6.0,85,0.00,,,0.00,Wunderground v.1.13,2013-02-08 12:03:00,
2013-02-08 07:09:00,35.0,30.9,29.87,NE,34,2.0,4.0,85,0.00,,,0.00,Wunderground v.1.13,2013-02-08 12:09:00,
2013-02-08 07:15:00,35.1,31.0,29.87,SW,216,2.0,4.0,85,0.00,,,0.00,Wunderground v.1.13,2013-02-08 12:15:00,
2013-02-08 07:20:00,35.2,30.9,29.86,South,178,3.0,5.0,84,0.00,,,0.00,Wunderground v.1.13,2013-02-08 12:20:00,
2013-02-08 07:26:00,35.2,30.9,29.87,NE,43,3.0,4.0,84,0.00,,,0.00,Wunderground v.1.13,2013-02-08 12:26:00,
2013-02-08 07:32:00,35.2,30.9,29.87,SSW,194,3.0,4.0,84,0.00,,,0.00,Wunderground v.1.13,2013-02-08 12:32:00,
2013-02-08 07:37:00,-999.9,-99.9,29.87,NNE,29,2.0,5.0,255,-99.99,,,0.00,Wunderground v.1.13,2013-02-08 12:37:00,
2013-02-08 07:43:00,-999.9,-99.9,29.86,NNE,24,2.0,4.0,255,-99.99,,,0.00,Wunderground v.1.13,2013-02-08 12:43:00,
2013-02-08 07:48:00,-999.9,-99.9,29.86,NNE,33,2.0,4.0,255,-99.99,,,0.00,Wunderground v.1.13,2013-02-08 12:48:00,
2013-02-08 07:54:00,-999.9,-99.9,29.86,NNE,26,2.0,4.0,255,-99.99,,,0.00,Wunderground v.1.13,2013-02-08 12:54:00,
2013-02-08 08:00:00,-999.9,-99.9,29.85,NNE,26,2.0,2.0,255,-99.99,,,0.00,Wunderground v.1.13,2013-02-08 13:00:00,
2013-02-08 08:05:00,-999.9,-99.9,29.85,North,355,2.0,8.0,255,-99.99,,,0.00,Wunderground v.1.13,2013-02-08 13:05:00,
2013-02-08 08:11:00,-999.9,-99.9,29.85,NNW,348,3.0,8.0,255,-99.99,,,0.00,Wunderground v.1.13,2013-02-08 13:11:00,
2013-02-08 08:16:00,-999.9,-99.9,29.85,NNW,348,2.0,8.0,255,-99.99,,,0.00,Wunderground v.1.13,2013-02-08 13:16:00,
2013-02-08 08:22:00,-999.9,-99.9,29.85,NNW,348,1.0,8.0,255,-99.99,,,0.00,Wunderground v.1.13,2013-02-08 13:22:00,
2013-02-08 08:27:00,-999.9,-99.9,29.85,NNW,348,0.0,8.0,255,-99.99,,,0.00,Wunderground v.1.13,2013-02-08 13:27:00,
2013-02-08 08:32:00,-999.9,-99.9,29.85,NNW,348,1.0,8.0,255,-99.99,,,0.00,Wunderground v.1.13,2013-02-08 13:32:00,
2013-02-08 08:38:00,-999.9,-99.9,29.85,NNW,348,1.0,8.0,255,-99.99,,,0.00,Wunderground v.1.13,2013-02-08 13:38:00,
2013-02-08 08:44:00,-999.9,-99.9,29.85,NNW,347,1.0,8.0,255,-99.99,,,0.00,Wunderground v.1.13,2013-02-08 13:44:00,
2013-02-08 08:49:00,-999.9,-99.9,29.85,NNW,347,1.0,8.0,255,-99.99,,,0.00,Wunderground v.1.13,2013-02-08 13:49:00,
2013-02-08 08:55:00,-999.9,-99.9,29.84,NNW,347,1.0,1.0,255,-99.99,,,0.00,Wunderground v.1.13,2013-02-08 13:55:00,
2013-02-08 09:00:00,-999.9,-99.9,29.84,NNW,347,0.0,8.0,255,-99.99,,,0.00,Wunderground v.1.13,2013-02-08 14:00:00,
2013-02-08 09:05:00,-999.9,-99.9,29.84,North,11,1.0,4.0,255,-99.99,,,0.00,Wunderground v.1.13,2013-02-08 14:05:00,
2013-02-08 09:12:00,-999.9,-99.9,29.82,NNE,22,2.0,3.0,255,-99.99,,,0.00,Wunderground v.1.13,2013-02-08 14:12:00,
2013-02-08 09:18:00,-999.9,-99.9,29.82,ESE,123,3.0,5.0,255,-99.99,,,0.00,Wunderground v.1.13,2013-02-08 14:18:00,
2013-02-08 09:23:00,-999.9,-99.9,29.82,SE,129,2.0,3.0,255,-99.99,,,0.00,Wunderground v.1.13,2013-02-08 14:23:00,
2013-02-08 09:29:00,-999.9,-99.9,29.82,South,181,1.0,4.0,255,-99.99,,,0.00,Wunderground v.1.13,2013-02-08 14:29:00,
2013-02-08 09:35:00,39.9,33.9,29.81,SSE,156,2.0,2.0,79,0.00,,,0.00,Wunderground v.1.13,2013-02-08 14:35:00,
2013-02-08 09:40:00,40.4,34.1,29.81,SSE,148,4.0,10.0,78,0.00,,,0.00,Wunderground v.1.13,2013-02-08 14:40:00,
2013-02-08 09:45:00,40.6,34.3,29.80,South,169,5.0,5.0,78,0.00,,,0.00,Wunderground v.1.13,2013-02-08 14:45:00,
2013-02-08 09:51:00,40.8,34.1,29.80,SSE,149,4.0,9.0,77,0.00,,,0.00,Wunderground v.1.13,2013-02-08 14:51:00,
2013-02-08 09:56:00,41.0,35.6,29.79,SSE,148,6.0,11.0,81,0.00,,,0.00,Wunderground v.1.13,2013-02-08 14:56:00,
2013-02-08 10:02:00,41.2,34.5,29.78,SSW,196,8.0,8.0,77,0.00,,,0.00,Wunderground v.1.13,2013-02-08 15:02:00,
2013-02-08 10:08:00,41.4,34.7,29.79,SE,137,6.0,7.0,77,0.00,,,0.00,Wunderground v.1.13,2013-02-08 15:08:00,
2013-02-08 10:14:00,41.6,34.9,29.79,South,186,6.0,10.0,77,0.00,,,0.00,Wunderground v.1.13,2013-02-08 15:14:00,
2013-02-08 10:19:00,41.8,35.1,29.79,ENE,58,6.0,7.0,77,0.00,,,0.00,Wunderground v.1.13,2013-02-08 15:19:00,
2013-02-08 10:25:00,42.0,35.0,29.79,SW,229,3.0,3.0,76,0.00,,,0.00,Wunderground v.1.13,2013-02-08 15:25:00,
2013-02-08 10:30:00,41.9,34.9,29.80,WSW,258,3.0,3.0,76,0.00,,,0.00,Wunderground v.1.13,2013-02-08 15:30:00,
2013-02-08 10:36:00,41.7,34.7,29.81,West,262,2.0,5.0,76,0.00,,,0.00,Wunderground v.1.13,2013-02-08 15:36:00,
2013-02-08 10:42:00,41.2,34.9,29.82,SSW,200,2.0,5.0,78,0.00,,,0.00,Wunderground v.1.13,2013-02-08 15:42:00,
2013-02-08 10:47:00,40.8,35.1,29.82,SSW,212,2.0,5.0,80,0.00,,,0.00,Wunderground v.1.13,2013-02-08 15:47:00,
2013-02-08 10:53:00,40.6,35.5,29.82,SSW,212,1.0,5.0,82,0.00,,,0.00,Wunderground v.1.13,2013-02-08 15:53:00,
2013-02-08 10:59:00,40.4,35.6,29.82,SSW,212,0.0,5.0,83,0.00,,,0.00,Wunderground v.1.13,2013-02-08 15:59:00,
2013-02-08 11:04:00,40.2,35.8,29.82,SSW,210,0.0,5.0,84,0.00,,,0.00,Wunderground v.1.13,2013-02-08 16:04:00,
2013-02-08 11:10:00,40.0,35.9,29.82,SSW,209,1.0,5.0,85,0.00,,,0.00,Wunderground v.1.13,2013-02-08 16:10:00,
2013-02-08 11:16:00,39.9,35.8,29.82,South,191,2.0,5.0,85,0.00,,,0.00,Wunderground v.1.13,2013-02-08 16:16:00,
2013-02-08 11:22:00,39.8,36.0,29.81,South,191,1.0,5.0,86,0.00,,,0.00,Wunderground v.1.13,2013-02-08 16:22:00,
2013-02-08 11:27:00,39.8,36.0,29.81,South,191,0.0,5.0,86,0.00,,,0.00,Wunderground v.1.13,2013-02-08 16:27:00,
2013-02-08 11:32:00,39.7,36.1,29.81,South,191,0.0,5.0,87,0.00,,,0.00,Wunderground v.1.13,2013-02-08 16:32:00,
2013-02-08 11:38:00,39.7,36.1,29.81,South,191,0.0,5.0,87,0.00,,,0.00,Wunderground v.1.13,2013-02-08 16:38:00,
2013-02-08 11:44:00,39.7,36.1,29.81,South,191,0.0,5.0,87,0.00,,,0.00,Wunderground v.1.13,2013-02-08 16:44:00,
2013-02-08 11:50:00,39.6,36.0,29.81,South,191,0.0,5.0,87,0.00,,,0.00,Wunderground v.1.13,2013-02-08 16:50:00,
2013-02-08 11:56:00,39.6,36.0,29.80,South,191,0.0,5.0,87,0.00,,,0.00,Wunderground v.1.13,2013-02-08 16:56:00,
2013-02-08 12:01:00,39.6,36.6,29.80,South,191,0.0,5.0,89,0.00,,,0.00,Wunderground v.1.13,2013-02-08 17:01:00,
2013-02-08 12:07:00,39.6,36.6,29.80,South,191,0.0,0.0,89,0.00,,,0.00,Wunderground v.1.13,2013-02-08 17:07:00,
2013-02-08 12:12:00,39.7,36.7,29.79,South,191,0.0,2.0,89,0.00,,,0.00,Wunderground v.1.13,2013-02-08 17:12:00,
2013-02-08 12:18:00,39.8,37.1,29.79,South,191,0.0,1.0,90,0.00,,,0.00,Wunderground v.1.13,2013-02-08 17:18:00,
2013-02-08 12:23:00,39.8,37.1,29.80,South,191,0.0,1.0,90,0.00,,,0.00,Wunderground v.1.13,2013-02-08 17:23:00,
2013-02-08 12:28:00,39.7,37.0,29.80,South,191,0.0,2.0,90,0.00,,,0.00,Wunderground v.1.13,2013-02-08 17:28:00,
2013-02-08 12:34:00,39.7,37.0,29.80,SSW,193,1.0,2.0,90,0.00,,,0.00,Wunderground v.1.13,2013-02-08 17:34:00,
2013-02-08 12:39:00,39.6,36.9,29.80,SSW,193,1.0,3.0,90,0.00,,,0.00,Wunderground v.1.13,2013-02-08 17:39:00,
2013-02-08 12:45:00,39.5,36.8,29.80,SSW,198,1.0,4.0,90,0.00,,,0.00,Wunderground v.1.13,2013-02-08 17:45:00,
2013-02-08 12:50:00,39.5,36.8,29.79,SSW,198,1.0,2.0,90,0.00,,,0.00,Wunderground v.1.13,2013-02-08 17:50:00,
2013-02-08 12:55:00,39.4,36.7,29.79,SW,217,1.0,2.0,90,0.00,,,0.00,Wunderground v.1.13,2013-02-08 17:55:00,
2013-02-08 13:00:00,39.2,36.5,29.79,SW,217,1.0,1.0,90,0.00,,,0.00,Wunderground v.1.13,2013-02-08 18:00:00,
2013-02-08 13:05:00,39.0,36.3,29.79,SW,217,1.0,1.0,90,0.00,,,0.00,Wunderground v.1.13,2013-02-08 18:05:00,
2013-02-08 13:11:00,39.1,36.4,29.79,SW,217,0.0,1.0,90,0.00,,,0.00,Wunderground v.1.13,2013-02-08 18:11:00,
2013-02-08 13:16:00,38.6,36.2,29.79,SW,215,1.0,1.0,91,0.00,,,0.00,Wunderground v.1.13,2013-02-08 18:16:00,
2013-02-08 13:22:00,38.5,36.1,29.79,SW,219,1.0,3.0,91,0.00,,,0.00,Wunderground v.1.13,2013-02-08 18:22:00,
2013-02-08 13:27:00,38.5,36.1,29.80,SSW,199,1.0,6.0,91,0.00,,,0.00,Wunderground v.1.13,2013-02-08 18:27:00,
2013-02-08 13:32:00,38.5,36.1,29.80,SW,227,2.0,2.0,91,0.00,,,0.00,Wunderground v.1.13,2013-02-08 18:32:00,
2013-02-08 13:38:00,38.5,36.1,29.80,SW,227,1.0,1.0,91,0.00,,,0.00,Wunderground v.1.13,2013-02-08 18:38:00,
2013-02-08 13:44:00,38.5,36.1,29.80,SW,227,0.0,1.0,91,0.00,,,0.00,Wunderground v.1.13,2013-02-08 18:44:00,
2013-02-08 13:49:00,38.4,36.0,29.80,WSW,240,0.0,1.0,91,0.00,,,0.00,Wunderground v.1.13,2013-02-08 18:49:00,
2013-02-08 13:54:00,38.4,36.3,29.81,WSW,240,0.0,1.0,92,0.00,,,0.00,Wunderground v.1.13,2013-02-08 18:54:00,
2013-02-08 14:00:00,38.2,36.1,29.81,SSW,210,1.0,5.0,92,0.00,,,0.00,Wunderground v.1.13,2013-02-08 19:00:00,
2013-02-08 14:05:00,38.1,36.0,29.81,WSW,242,3.0,3.0,92,0.00,,,0.00,Wunderground v.1.13,2013-02-08 19:05:00,
2013-02-08 14:11:00,37.8,35.4,29.81,WSW,244,2.0,8.0,91,0.00,,,0.00,Wunderground v.1.13,2013-02-08 19:11:00,
2013-02-08 14:16:00,37.5,35.4,29.82,SW,236,3.0,6.0,92,0.00,,,0.00,Wunderground v.1.13,2013-02-08 19:16:00,
2013-02-08 14:22:00,37.2,34.8,29.82,SW,235,2.0,6.0,91,0.00,,,0.00,Wunderground v.1.13,2013-02-08 19:22:00,
2013-02-08 14:27:00,37.0,34.6,29.82,WSW,248,2.0,6.0,91,0.00,,,0.00,Wunderground v.1.13,2013-02-08 19:27:00,
2013-02-08 14:32:00,36.8,34.4,29.82,WSW,248,2.0,6.0,91,0.00,,,0.00,Wunderground v.1.13,2013-02-08 19:32:00,
2013-02-08 14:37:00,36.6,34.2,29.82,WSW,248,1.0,6.0,91,0.00,,,0.00,Wunderground v.1.13,2013-02-08 19:37:00,
2013-02-08 14:43:00,36.2,33.8,29.83,WNW,297,1.0,6.0,91,0.00,,,0.00,Wunderground v.1.13,2013-02-08 19:43:00,
2013-02-08 14:49:00,35.9,33.5,29.83,West,267,3.0,6.0,91,0.00,,,0.00,Wunderground v.1.13,2013-02-08 19:49:00,
2013-02-08 14:54:00,35.5,33.1,29.83,NNW,331,3.0,8.0,91,0.00,,,0.00,Wunderground v.1.13,2013-02-08 19:54:00,
2013-02-08 15:00:00,35.2,32.8,29.84,WSW,254,4.0,6.0,91,0.00,,,0.00,Wunderground v.1.13,2013-02-08 20:00:00,
2013-02-08 15:05:00,35.1,32.7,29.84,West,259,4.0,4.0,91,0.00,,,0.00,Wunderground v.1.13,2013-02-08 20:05:00,
2013-02-08 15:11:00,34.9,32.5,29.84,NW,304,2.0,8.0,91,0.00,,,0.00,Wunderground v.1.13,2013-02-08 20:11:00,
2013-02-08 15:17:00,34.6,32.2,29.85,WSW,246,3.0,8.0,91,0.00,,,0.00,Wunderground v.1.13,2013-02-08 20:17:00,
2013-02-08 15:23:00,34.3,31.9,29.85,WNW,283,3.0,8.0,91,0.00,,,0.00,Wunderground v.1.13,2013-02-08 20:23:00,
2013-02-08 15:29:00,34.0,31.6,29.85,WSW,256,4.0,10.0,91,0.00,,,0.00,Wunderground v.1.13,2013-02-08 20:29:00,
2013-02-08 15:34:00,33.8,31.5,29.86,NW,315,4.0,8.0,91,0.00,,,0.00,Wunderground v.1.13,2013-02-08 20:34:00,
2013-02-08 15:40:00,33.7,31.6,29.86,WNW,286,2.0,2.0,92,0.00,,,0.00,Wunderground v.1.13,2013-02-08 20:40:00,
2013-02-08 15:46:00,33.6,31.3,29.86,WSW,242,2.0,8.0,91,0.00,,,0.00,Wunderground v.1.13,2013-02-08 20:46:00,
2013-02-08 15:52:00,33.5,31.2,29.87,West,265,2.0,8.0,91,0.00,,,0.00,Wunderground v.1.13,2013-02-08 20:52:00,
2013-02-08 15:58:00,33.3,31.0,29.87,NW,317,2.0,8.0,91,0.00,,,0.00,Wunderground v.1.13,2013-02-08 20:58:00,
2013-02-08 16:04:00,33.1,30.8,29.88,West,265,2.0,8.0,91,0.00,,,0.00,Wunderground v.1.13,2013-02-08 21:04:00,
2013-02-08 16:10:00,32.9,30.6,29.88,WSW,248,2.0,4.0,91,0.00,,,0.00,Wunderground v.1.13,2013-02-08 21:10:00,
2013-02-08 16:16:00,32.7,30.4,29.88,SW,229,2.0,4.0,91,0.00,,,0.00,Wunderground v.1.13,2013-02-08 21:16:00,
2013-02-08 16:22:00,32.5,30.2,29.88,NW,307,4.0,6.0,91,0.00,,,0.00,Wunderground v.1.13,2013-02-08 21:22:00,
2013-02-08 16:27:00,32.3,30.0,29.88,WSW,244,4.0,6.0,91,0.00,,,0.00,Wunderground v.1.13,2013-02-08 21:27:00,
2013-02-08 16:33:00,32.1,29.8,29.89,SW,232,2.0,7.0,91,0.00,,,0.00,Wunderground v.1.13,2013-02-08 21:33:00,
2013-02-08 16:38:00,32.1,29.8,29.89,West,276,3.0,6.0,91,0.00,,,0.00,Wunderground v.1.13,2013-02-08 21:38:00,
2013-02-08 16:44:00,32.0,29.7,29.90,WNW,294,3.0,8.0,91,0.00,,,0.00,Wunderground v.1.13,2013-02-08 21:44:00,
2013-02-08 16:50:00,31.9,29.3,29.90,West,263,3.0,3.0,90,0.00,,,0.00,Wunderground v.1.13,2013-02-08 21:50:00,
2013-02-08 16:56:00,31.7,29.1,29.90,WSW,239,2.0,2.0,90,0.00,,,0.00,Wunderground v.1.13,2013-02-08 21:56:00,
2013-02-08 17:01:00,31.7,29.1,29.90,West,263,2.0,3.0,90,0.00,,,0.00,Wunderground v.1.13,2013-02-08 22:01:00,
2013-02-08 17:07:00,31.5,28.9,29.91,SW,234,2.0,14.0,90,0.00,,,0.00,Wunderground v.1.13,2013-02-08 22:07:00,
2013-02-08 17:13:00,31.3,28.7,29.91,West,266,2.0,14.0,90,0.00,,,0.00,Wunderground v.1.13,2013-02-08 22:13:00,
2013-02-08 17:19:00,31.2,28.6,29.91,WSW,255,1.0,14.0,90,0.00,,,0.00,Wunderground v.1.13,2013-02-08 22:19:00,
2013-02-08 17:24:00,31.1,28.2,29.91,SW,221,2.0,14.0,89,0.00,,,0.00,Wunderground v.1.13,2013-02-08 22:24:00,
2013-02-08 17:30:00,30.8,27.9,29.92,WSW,255,4.0,14.0,89,0.00,,,0.00,Wunderground v.1.13,2013-02-08 22:30:00,
2013-02-08 17:36:00,30.6,27.7,29.92,NNW,337,2.0,14.0,89,0.00,,,0.00,Wunderground v.1.13,2013-02-08 22:36:00,
2013-02-08 17:42:00,30.6,27.7,29.93,WSW,251,1.0,14.0,89,0.00,,,0.00,Wunderground v.1.13,2013-02-08 22:42:00,
2013-02-08 17:47:00,30.5,27.6,29.94,WSW,251,1.0,14.0,89,0.00,,,0.00,Wunderground v.1.13,2013-02-08 22:47:00,
2013-02-08 17:52:00,30.5,27.4,29.94,WSW,251,1.0,14.0,88,0.00,,,0.00,Wunderground v.1.13,2013-02-08 22:52:00,
2013-02-08 17:58:00,30.4,27.3,29.95,SW,236,2.0,14.0,88,0.00,,,0.00,Wunderground v.1.13,2013-02-08 22:58:00,
2013-02-08 18:03:00,30.3,27.2,29.95,WSW,252,3.0,14.0,88,0.00,,,0.00,Wunderground v.1.13,2013-02-08 23:03:00,
2013-02-08 18:09:00,30.1,26.7,29.95,WSW,246,3.0,11.0,87,0.00,,,0.00,Wunderground v.1.13,2013-02-08 23:09:00,
2013-02-08 18:14:00,30.0,26.6,29.96,WNW,292,3.0,6.0,87,0.00,,,0.00,Wunderground v.1.13,2013-02-08 23:14:00,
2013-02-08 18:20:00,29.8,26.1,29.96,SW,217,2.0,4.0,86,0.00,,,0.00,Wunderground v.1.13,2013-02-08 23:20:00,
2013-02-08 18:26:00,29.6,25.6,29.97,West,265,3.0,4.0,85,0.00,,,0.00,Wunderground v.1.13,2013-02-08 23:26:00,
2013-02-08 18:31:00,29.5,25.5,29.97,NW,317,4.0,4.0,85,0.00,,,0.00,Wunderground v.1.13,2013-02-08 23:31:00,
2013-02-08 18:37:00,29.4,25.2,29.98,WNW,301,1.0,12.0,84,0.00,,,0.00,Wunderground v.1.13,2013-02-08 23:37:00,
2013-02-08 18:42:00,29.3,25.1,29.98,SSE,166,1.0,4.0,84,0.00,,,0.00,Wunderground v.1.13,2013-02-08 23:42:00,
2013-02-08 18:48:00,29.1,24.9,29.98,NW,317,2.0,5.0,84,0.00,,,0.00,Wunderground v.1.13,2013-02-08 23:48:00,
2013-02-08 18:54:00,29.0,24.8,29.99,NW,306,2.0,4.0,84,0.00,,,0.00,Wunderground v.1.13,2013-02-08 23:54:00,
2013-02-08 18:59:00,29.0,24.8,29.99,SW,227,1.0,4.0,84,0.00,,,0.00,Wunderground v.1.13,2013-02-08 23:59:00,
2013-02-08 19:04:00,29.0,25.1,29.99,NNE,30,1.0,4.0,85,0.00,,,0.00,Wunderground v.1.13,2013-02-09 00:04:00,
2013-02-08 19:09:00,28.9,25.0,29.99,NW,320,2.0,5.0,85,0.00,,,0.00,Wunderground v.1.13,2013-02-09 00:09:00,
2013-02-08 19:15:00,28.8,24.6,29.99,West,277,3.0,3.0,84,0.00,,,0.00,Wunderground v.1.13,2013-02-09 00:15:00,
2013-02-08 19:20:00,28.8,24.9,30.00,SW,221,2.0,2.0,85,0.00,,,0.00,Wunderground v.1.13,2013-02-09 00:20:00,
2013-02-08 19:26:00,28.7,24.5,30.00,West,263,2.0,4.0,84,0.00,,,0.00,Wunderground v.1.13,2013-02-09 00:26:00,
2013-02-08 19:31:00,28.5,24.3,30.01,West,266,1.0,2.0,84,0.00,,,0.00,Wunderground v.1.13,2013-02-09 00:31:00,
2013-02-08 19:37:00,28.6,24.4,30.00,SSW,207,1.0,2.0,84,0.00,,,0.00,Wunderground v.1.13,2013-02-09 00:37:00,
2013-02-08 19:42:00,28.5,24.3,30.01,WNW,282,1.0,7.0,84,0.00,,,0.00,Wunderground v.1.13,2013-02-09 00:42:00,
2013-02-08 19:48:00,28.5,24.3,30.02,NW,315,1.0,9.0,84,0.00,,,0.00,Wunderground v.1.13,2013-02-09 00:48:00,
2013-02-08 19:53:00,28.4,24.2,30.02,NW,311,1.0,1.0,84,0.00,,,0.00,Wunderground v.1.13,2013-02-09 00:53:00,
2013-02-08 19:59:00,28.3,23.8,30.02,NW,310,1.0,1.0,83,0.00,,,0.00,Wunderground v.1.13,2013-02-09 00:59:00,
2013-02-08 20:05:00,28.2,23.7,30.03,NNW,327,1.0,1.0,83,0.00,,,0.00,Wunderground v.1.13,2013-02-09 01:05:00,
2013-02-08 20:10:00,28.1,23.6,30.03,NNW,327,1.0,1.0,83,0.00,,,0.00,Wunderground v.1.13,2013-02-09 01:10:00,
2013-02-08 20:16:00,28.1,23.6,30.03,SSW,198,1.0,2.0,83,0.00,,,0.00,Wunderground v.1.13,2013-02-09 01:16:00,
2013-02-08 20:22:00,28.1,23.6,30.03,SSW,203,1.0,7.0,83,0.00,,,0.00,Wunderground v.1.13,2013-02-09 01:22:00,
2013-02-08 20:28:00,28.0,23.5,30.03,South,186,1.0,7.0,83,0.00,,,0.00,Wunderground v.1.13,2013-02-09 01:28:00,
2013-02-08 20:34:00,28.0,23.5,30.03,South,190,1.0,7.0,83,0.00,,,0.00,Wunderground v.1.13,2013-02-09 01:34:00,
2013-02-08 20:40:00,28.0,23.5,30.04,South,191,1.0,7.0,83,0.00,,,0.00,Wunderground v.1.13,2013-02-09 01:40:00,
2013-02-08 20:46:00,27.9,23.7,30.03,WSW,250,1.0,7.0,84,0.00,,,0.00,Wunderground v.1.13,2013-02-09 01:46:00,
2013-02-08 20:51:00,27.9,23.7,30.04,WSW,251,2.0,7.0,84,0.00,,,0.00,Wunderground v.1.13,2013-02-09 01:51:00,
2013-02-08 20:56:00,27.9,23.7,30.04,NW,319,3.0,3.0,84,0.00,,,0.00,Wunderground v.1.13,2013-02-09 01:56:00,
2013-02-08 21:01:00,27.8,23.9,30.04,SW,232,2.0,3.0,85,0.00,,,0.00,Wunderground v.1.13,2013-02-09 02:01:00,
2013-02-08 21:06:00,27.8,23.9,30.04,WSW,244,2.0,3.0,85,0.00,,,0.00,Wunderground v.1.13,2013-02-09 02:06:00,
2013-02-08 21:12:00,27.8,23.9,30.05,WSW,246,1.0,3.0,85,0.00,,,0.00,Wunderground v.1.13,2013-02-09 02:12:00,
2013-02-08 21:18:00,27.7,23.8,30.05,WSW,240,1.0,3.0,85,0.00,,,0.00,Wunderground v.1.13,2013-02-09 02:18:00,
2013-02-08 21:24:00,27.7,23.8,30.05,WSW,242,1.0,3.0,85,0.00,,,0.00,Wunderground v.1.13,2013-02-09 02:24:00,
2013-02-08 21:29:00,27.7,23.8,30.06,WSW,254,1.0,3.0,85,0.00,,,0.00,Wunderground v.1.13,2013-02-09 02:29:00,
2013-02-08 21:35:00,27.7,24.1,30.06,WSW,254,1.0,1.0,86,0.00,,,0.00,Wunderground v.1.13,2013-02-09 02:35:00,
2013-02-08 21:41:00,27.6,24.0,30.06,SW,232,1.0,3.0,86,0.00,,,0.00,Wunderground v.1.13,2013-02-09 02:41:00,
2013-02-08 21:47:00,27.6,24.0,30.06,West,264,1.0,3.0,86,0.00,,,0.00,Wunderground v.1.13,2013-02-09 02:47:00,
2013-02-08 21:52:00,27.6,24.0,30.07,SW,219,1.0,6.0,86,0.00,,,0.00,Wunderground v.1.13,2013-02-09 02:52:00,
2013-02-08 21:58:00,27.5,23.9,30.07,NW,321,2.0,4.0,86,0.00,,,0.00,Wunderground v.1.13,2013-02-09 02:58:00,
2013-02-08 22:04:00,27.4,24.0,30.08,WSW,253,1.0,8.0,87,0.00,,,0.00,Wunderground v.1.13,2013-02-09 03:04:00,
2013-02-08 22:10:00,27.3,23.7,30.07,West,272,2.0,2.0,86,0.00,,,0.00,Wunderground v.1.13,2013-02-09 03:10:00,
2013-02-08 22:15:00,27.3,23.7,30.08,WSW,239,3.0,3.0,86,0.00,,,0.00,Wunderground v.1.13,2013-02-09 03:15:00,
2013-02-08 22:21:00,27.2,23.6,30.08,WNW,292,3.0,3.0,86,0.00,,,0.00,Wunderground v.1.13,2013-02-09 03:21:00,
2013-02-08 22:26:00,27.1,23.5,30.08,West,268,3.0,9.0,86,0.00,,,0.00,Wunderground v.1.13,2013-02-09 03:26:00,
2013-02-08 22:32:00,27.1,23.5,30.08,WSW,243,2.0,3.0,86,0.00,,,0.00,Wunderground v.1.13,2013-02-09 03:32:00,
2013-02-08 22:38:00,27.1,23.5,30.08,WSW,240,1.0,2.0,86,0.00,,,0.00,Wunderground v.1.13,2013-02-09 03:38:00,
2013-02-08 22:44:00,27.0,23.4,30.09,SW,221,1.0,4.0,86,0.00,,,0.00,Wunderground v.1.13,2013-02-09 03:44:00,
2013-02-08 22:49:00,27.0,23.4,30.09,WSW,245,1.0,3.0,86,0.00,,,0.00,Wunderground v.1.13,2013-02-09 03:49:00,
2013-02-08 22:54:00,27.0,23.6,30.09,SW,236,1.0,2.0,87,0.00,,,0.00,Wunderground v.1.13,2013-02-09 03:54:00,
2013-02-08 23:00:00,27.0,23.6,30.09,West,267,1.0,1.0,87,0.00,,,0.00,Wunderground v.1.13,2013-02-09 04:00:00,
2013-02-08 23:05:00,26.9,23.5,30.09,West,275,2.0,2.0,87,0.00,,,0.00,Wunderground v.1.13,2013-02-09 04:05:00,
2013-02-08 23:11:00,26.8,23.4,30.09,WNW,298,2.0,3.0,87,0.00,,,0.00,Wunderground v.1.13,2013-02-09 04:11:00,
2013-02-08 23:16:00,26.7,23.4,30.09,WSW,246,2.0,3.0,87,0.00,,,0.00,Wunderground v.1.13,2013-02-09 04:16:00,
2013-02-08 23:22:00,26.7,23.1,30.09,WSW,246,2.0,3.0,86,0.00,,,0.00,Wunderground v.1.13,2013-02-09 04:22:00,
2013-02-08 23:28:00,26.7,23.1,30.09,NW,321,2.0,6.0,86,0.00,,,0.00,Wunderground v.1.13,2013-02-09 04:28:00,
2013-02-08 23:33:00,26.7,23.4,30.09,NW,314,3.0,7.0,87,0.00,,,0.00,Wunderground v.1.13,2013-02-09 04:33:00,
2013-02-08 23:39:00,26.7,23.4,30.10,SW,227,3.0,3.0,87,0.00,,,0.00,Wunderground v.1.13,2013-02-09 04:39:00,
2013-02-08 23:45:00,26.6,23.3,30.10,SW,231,2.0,4.0,87,0.00,,,0.00,Wunderground v.1.13,2013-02-09 04:45:00,
2013-02-08 23:51:00,26.6,23.5,30.10,NW,318,1.0,3.0,88,0.00,,,0.00,Wunderground v.1.13,2013-02-09 04:51:00,
2013-02-08 23:56:00,26.6,23.5,30.10,WNW,286,1.0,3.0,88,0.00,,,0.00,Wunderground v.1.13,2013-02-09 04:56:00,